| time (UTC) | temp F | wind direction | speed knots | gust knots | rain 1hr in | rain 24hr in | rain mn in | humidity % | barometer mb |
| 20260507170441 | 74 | 220 | 4.3 | 0.0 | 0.00 | 0.00 | 0.00 | 73 | 1013.0 |
| 20260507165440 | 74 | 220 | 4.3 | 0.0 | 0.00 | 0.00 | 0.00 | 73 | 1013.0 |
| 20260507164439 | 75 | 220 | 4.3 | 0.0 | 0.00 | 0.00 | 0.00 | 73 | 1014.0 |
| 20260507163438 | 71 | 0 | 0.9 | 0.0 | 0.00 | 0.00 | 0.00 | 83 | 1014.0 |
| 20260507162437 | 71 | 0 | 0.9 | 0.0 | 0.00 | 0.00 | 0.00 | 83 | 1015.0 |
| 20260507161436 | 71 | 0 | 0.9 | 0.0 | 0.00 | 0.00 | 0.00 | 83 | 1015.0 |
| 20260507160436 | 72 | 0 | 1.7 | 0.0 | 0.00 | 0.00 | 0.00 | 83 | 1015.0 |
| 20260507155435 | 73 | 0 | 1.7 | 0.0 | 0.00 | 0.00 | 0.00 | 83 | 1014.0 |
| 20260507154434 | 70 | 0 | 0.9 | 0.0 | 0.00 | 0.00 | 0.00 | 83 | 1015.0 |
| 20260507153432 | 70 | 0 | 0.9 | 0.0 | 0.00 | 0.00 | 0.00 | 83 | 1015.0 |
| 20260507152432 | 70 | 0 | 0.9 | 0.0 | 0.00 | 0.00 | 0.00 | 83 | 1016.0 |
| 20260507151431 | 70 | 0 | 0.9 | 0.0 | 0.00 | 0.00 | 0.00 | 83 | 1016.0 |
| 20260507150430 | 70 | 0 | 0.9 | 0.0 | 0.00 | 0.00 | 0.00 | 83 | 1016.0 |
| 20260507145429 | 71 | 0 | 1.7 | 0.0 | 0.00 | 0.00 | 0.00 | 83 | 1015.0 |
| 20260507144428 | 71 | 0 | 1.7 | 0.0 | 0.00 | 0.00 | 0.00 | 83 | 1016.0 |
| 20260507143427 | 65 | 0 | 0.9 | 0.0 | 0.00 | 0.00 | 0.00 | 81 | 1016.0 |
| 20260507142426 | 65 | 0 | 0.9 | 0.0 | 0.00 | 0.00 | 0.00 | 81 | 1016.0 |
| 20260507141425 | 65 | 0 | 0.9 | 0.0 | 0.00 | 0.00 | 0.00 | 81 | 1016.0 |
| 20260507140424 | 65 | 0 | 0.9 | 0.0 | 0.00 | 0.00 | 0.00 | 83 | 1016.0 |
| 20260507135423 | 65 | 0 | 0.9 | 0.0 | 0.00 | 0.00 | 0.00 | 83 | 1016.0 |
| 20260507134422 | 65 | 0 | 0.9 | 0.0 | 0.00 | 0.00 | 0.00 | 83 | 1016.0 |
| 20260507133421 | 64 | 0 | 0.9 | 0.0 | 0.00 | 0.00 | 0.00 | 77 | 1016.0 |
| 20260507132420 | 64 | 0 | 0.9 | 0.0 | 0.00 | 0.00 | 0.00 | 77 | 1016.0 |
| 20260507131419 | 64 | 0 | 0.9 | 0.0 | 0.00 | 0.00 | 0.00 | 76 | 1016.0 |
| 20260507130418 | 64 | 298 | 0.0 | 1.7 | 0.00 | 0.00 | 0.00 | 75 | 1016.0 |
| 20260507125417 | 65 | 298 | 0.0 | 1.7 | 0.00 | 0.00 | 0.00 | 75 | 1016.0 |
| 20260507124416 | 58 | 91 | 3.5 | 3.5 | 0.00 | 0.00 | 0.00 | 80 | 1016.0 |
| 20260507123415 | 58 | 91 | 3.5 | 3.5 | 0.00 | 0.00 | 0.00 | 80 | 1016.0 |
| 20260507122414 | 58 | 91 | 3.5 | 3.5 | 0.00 | 0.00 | 0.00 | 80 | 1016.0 |
| 20260507121413 | 58 | 91 | 3.5 | 3.5 | 0.00 | 0.00 | 0.00 | 80 | 1016.0 |
| 20260507120412 | 58 | 91 | 3.5 | 3.5 | 0.00 | 0.00 | 0.00 | 80 | 1016.0 |
| 20260507115411 | 58 | 91 | 3.5 | 3.5 | 0.00 | 0.00 | 0.00 | 80 | 1016.0 |
| 20260507114410 | 58 | 91 | 3.5 | 3.5 | 0.00 | 0.00 | 0.00 | 80 | 1016.0 |
| 20260507113409 | 58 | 91 | 3.5 | 3.5 | 0.00 | 0.00 | 0.00 | 80 | 1016.0 |
| 20260507112408 | 58 | 91 | 3.5 | 3.5 | 0.00 | 0.00 | 0.00 | 80 | 1016.0 |
| 20260507111407 | 58 | 91 | 3.5 | 3.5 | 0.00 | 0.00 | 0.00 | 80 | 1016.0 |
| 20260507110406 | 58 | 91 | 3.5 | 3.5 | 0.00 | 0.00 | 0.00 | 80 | 1016.0 |
| 20260507105405 | 58 | 91 | 3.5 | 3.5 | 0.00 | 0.00 | 0.00 | 80 | 1016.0 |
| 20260507104404 | 58 | 91 | 3.5 | 3.5 | 0.00 | 0.00 | 0.00 | 80 | 1016.0 |
| 20260507103403 | 58 | 91 | 3.5 | 3.5 | 0.00 | 0.00 | 0.00 | 80 | 1016.0 |
| 20260507102402 | 58 | 91 | 3.5 | 3.5 | 0.00 | 0.00 | 0.00 | 80 | 1016.0 |
| 20260507101401 | 58 | 91 | 3.5 | 3.5 | 0.00 | 0.00 | 0.00 | 80 | 1016.0 |
| 20260507100400 | 58 | 91 | 3.5 | 3.5 | 0.00 | 0.00 | 0.00 | 80 | 1016.0 |
| 20260507095359 | 58 | 91 | 3.5 | 3.5 | 0.00 | 0.00 | 0.00 | 80 | 1016.0 |
| 20260507094358 | 58 | 91 | 3.5 | 3.5 | 0.00 | 0.00 | 0.00 | 80 | 1016.0 |
| 20260507093357 | 58 | 91 | 3.5 | 3.5 | 0.00 | 0.00 | 0.00 | 80 | 1016.0 |
| 20260507092356 | 58 | 91 | 3.5 | 3.5 | 0.00 | 0.00 | 0.00 | 80 | 1016.0 |
| 20260507091355 | 58 | 91 | 3.5 | 3.5 | 0.00 | 0.00 | 0.00 | 80 | 1016.0 |
| 20260507090354 | 59 | 91 | 3.5 | 3.5 | 0.00 | 0.00 | 0.00 | 80 | 1016.0 |
| 20260507085353 | 59 | 91 | 3.5 | 3.5 | 0.00 | 0.00 | 0.00 | 80 | 1016.0 |
| 20260507084352 | 59 | 91 | 3.5 | 3.5 | 0.00 | 0.00 | 0.00 | 80 | 1016.0 |
| 20260507083352 | 59 | 91 | 3.5 | 3.5 | 0.00 | 0.00 | 0.00 | 80 | 1016.0 |
| 20260507082351 | 59 | 91 | 3.5 | 3.5 | 0.00 | 0.00 | 0.00 | 80 | 1016.0 |
| 20260507081350 | 59 | 91 | 3.5 | 3.5 | 0.00 | 0.00 | 0.00 | 80 | 1016.0 |
| 20260507080349 | 59 | 91 | 3.5 | 3.5 | 0.00 | 0.00 | 0.00 | 80 | 1016.0 |
| 20260507075348 | 59 | 91 | 3.5 | 3.5 | 0.00 | 0.00 | 0.00 | 80 | 1016.0 |
| 20260507074347 | 59 | 91 | 3.5 | 3.5 | 0.00 | 0.00 | 0.00 | 80 | 1016.0 |
| 20260507073346 | 59 | 91 | 3.5 | 3.5 | 0.00 | 0.00 | 0.00 | 80 | 1016.0 |
| 20260507072345 | 59 | 91 | 3.5 | 3.5 | 0.00 | 0.00 | 0.00 | 80 | 1016.0 |
| 20260507071344 | 59 | 91 | 3.5 | 3.5 | 0.00 | 0.00 | 0.00 | 80 | 1016.0 |
| 20260507070343 | 59 | 91 | 3.5 | 3.5 | 0.00 | 0.00 | 0.00 | 80 | 1016.0 |
| 20260507065342 | 59 | 91 | 3.5 | 3.5 | 0.00 | 0.00 | 0.00 | 80 | 1016.0 |
| 20260507064341 | 59 | 91 | 3.5 | 3.5 | 0.00 | 0.00 | 0.00 | 80 | 1016.0 |
| 20260507063340 | 59 | 91 | 3.5 | 3.5 | 0.00 | 0.00 | 0.00 | 80 | 1016.0 |
| 20260507062339 | 59 | 91 | 3.5 | 3.5 | 0.00 | 0.00 | 0.00 | 80 | 1016.0 |
| 20260507061338 | 59 | 91 | 3.5 | 3.5 | 0.00 | 0.00 | 0.00 | 80 | 1016.0 |
| 20260507060337 | 59 | 91 | 3.5 | 3.5 | 0.00 | 0.00 | 0.00 | 80 | 1016.0 |
| 20260507055336 | 59 | 91 | 3.5 | 3.5 | 0.00 | 0.00 | 0.00 | 80 | 1016.0 |
| 20260507054335 | 59 | 91 | 3.5 | 3.5 | 0.00 | 0.00 | 0.00 | 80 | 1017.0 |
| 20260507053334 | 59 | 91 | 3.5 | 3.5 | 0.00 | 0.00 | 0.00 | 80 | 1017.0 |
| 20260507052333 | 59 | 91 | 3.5 | 3.5 | 0.00 | 0.00 | 0.00 | 80 | 1017.0 |
| 20260507051332 | 59 | 91 | 3.5 | 3.5 | 0.00 | 0.00 | 0.00 | 80 | 1017.0 |
| 20260507050331 | 59 | 91 | 3.5 | 3.5 | 0.00 | 0.00 | 0.00 | 80 | 1017.0 |
| 20260507045330 | 59 | 91 | 3.5 | 3.5 | 0.00 | 0.00 | 0.00 | 80 | 1017.0 |
| 20260507044329 | 60 | 91 | 3.5 | 3.5 | 0.00 | 0.00 | 0.00 | 80 | 1017.0 |
| 20260507043328 | 60 | 91 | 3.5 | 3.5 | 0.00 | 0.00 | 0.00 | 80 | 1017.0 |
| 20260507042327 | 60 | 91 | 3.5 | 3.5 | 0.00 | 0.00 | 0.00 | 80 | 1017.0 |
| 20260507041326 | 60 | 91 | 3.5 | 3.5 | 0.00 | 0.00 | 0.00 | 80 | 1017.0 |
| 20260507040325 | 60 | 91 | 3.5 | 3.5 | 0.00 | 0.00 | 0.00 | 80 | 1017.0 |
| 20260507035324 | 60 | 91 | 3.5 | 3.5 | 0.00 | 0.00 | 0.00 | 80 | 1017.0 |
| 20260507034323 | 60 | 91 | 3.5 | 3.5 | 0.00 | 0.00 | 0.00 | 80 | 1017.0 |
| 20260507033322 | 60 | 91 | 3.5 | 3.5 | 0.00 | 0.00 | 0.00 | 80 | 1016.0 |
| 20260507032320 | 60 | 91 | 3.5 | 3.5 | 0.00 | 0.00 | 0.00 | 80 | 1016.0 |
| 20260507031319 | 60 | 91 | 3.5 | 3.5 | 0.00 | 0.00 | 0.00 | 80 | 1016.0 |
| 20260507030318 | 61 | 91 | 3.5 | 3.5 | 0.00 | 0.00 | 0.00 | 80 | 1016.0 |
| 20260507025317 | 61 | 91 | 3.5 | 3.5 | 0.00 | 0.00 | 0.00 | 80 | 1017.0 |
| 20260507024316 | 61 | 91 | 3.5 | 3.5 | 0.00 | 0.00 | 0.00 | 80 | 1016.0 |
| 20260507023315 | 61 | 91 | 3.5 | 3.5 | 0.00 | 0.00 | 0.00 | 80 | 1016.0 |
| 20260507022314 | 61 | 91 | 3.5 | 3.5 | 0.00 | 0.00 | 0.00 | 80 | 1015.0 |
| 20260507021313 | 61 | 91 | 3.5 | 3.5 | 0.00 | 0.00 | 0.00 | 80 | 1015.0 |
| 20260507020312 | 62 | 91 | 3.5 | 3.5 | 0.00 | 0.00 | 0.00 | 80 | 1016.0 |
| 20260507015311 | 62 | 91 | 3.5 | 3.5 | 0.00 | 0.00 | 0.00 | 80 | 1016.0 |
| 20260507014310 | 62 | 91 | 3.5 | 3.5 | 0.00 | 0.00 | 0.00 | 80 | 1015.0 |
| 20260507013309 | 62 | 91 | 3.5 | 3.5 | 0.00 | 0.00 | 0.00 | 80 | 1015.0 |
| 20260507012308 | 62 | 91 | 3.5 | 3.5 | 0.00 | 0.00 | 0.00 | 80 | 1014.0 |
| 20260507011307 | 62 | 91 | 3.5 | 3.5 | 0.00 | 0.00 | 0.00 | 80 | 1014.0 |
| 20260507010306 | 63 | 91 | 3.5 | 3.5 | 0.00 | 0.00 | 0.00 | 80 | 1014.0 |
| 20260507005306 | 63 | 91 | 3.5 | 3.5 | 0.00 | 0.00 | 0.00 | 80 | 1015.0 |
| 20260507004304 | 63 | 91 | 3.5 | 3.5 | 0.00 | 0.00 | 0.00 | 80 | 1014.0 |
| 20260507003303 | 63 | 91 | 3.5 | 3.5 | 0.00 | 0.00 | 0.00 | 80 | 1014.0 |
| 20260507002305 | 63 | 91 | 3.5 | 3.5 | 0.00 | 0.00 | 0.00 | 80 | 1013.0 |
| 20260507001301 | 63 | 91 | 3.5 | 3.5 | 0.00 | 0.00 | 0.00 | 80 | 1013.0 |
| 20260507000300 | 64 | 91 | 3.5 | 3.5 | 0.00 | 0.00 | 0.00 | 80 | 1013.0 |
| 20260506235259 | 65 | 91 | 3.5 | 3.5 | 0.00 | 0.00 | 0.00 | 80 | 1014.0 |
| 20260506234258 | 65 | 91 | 3.5 | 3.5 | 0.00 | 0.00 | 0.00 | 80 | 1013.0 |
| 20260506233257 | 70 | 210 | 7.0 | 0.0 | 0.00 | 0.00 | 0.00 | 80 | 1013.0 |
| 20260506232256 | 70 | 210 | 7.0 | 0.0 | 0.00 | 0.00 | 0.00 | 80 | 1011.0 |
| 20260506231256 | 70 | 210 | 7.0 | 0.0 | 0.00 | 0.00 | 0.00 | 80 | 1011.0 |
| 20260506230255 | 70 | 210 | 7.0 | 0.0 | 0.00 | 0.00 | 0.00 | 80 | 1011.0 |
| 20260506225253 | 70 | 210 | 7.0 | 0.0 | 0.00 | 0.00 | 0.00 | 80 | 1012.0 |
| 20260506224252 | 70 | 210 | 7.0 | 0.0 | 0.00 | 0.00 | 0.00 | 80 | 1011.0 |
| 20260506223251 | 71 | 210 | 7.0 | 0.0 | 0.00 | 0.00 | 0.00 | 80 | 1011.0 |
| 20260506222251 | 71 | 210 | 7.0 | 0.0 | 0.00 | 0.00 | 0.00 | 80 | 1010.0 |
| 20260506221250 | 71 | 210 | 7.0 | 0.0 | 0.00 | 0.00 | 0.00 | 80 | 1010.0 |
| 20260506220249 | 72 | 210 | 7.0 | 0.0 | 0.00 | 0.00 | 0.00 | 80 | 1010.0 |
| 20260506215247 | 72 | 210 | 7.0 | 0.0 | 0.00 | 0.00 | 0.00 | 80 | 1010.0 |
| 20260506214247 | 72 | 210 | 7.0 | 0.0 | 0.00 | 0.00 | 0.00 | 80 | 1010.0 |
| 20260506213246 | 72 | 210 | 7.0 | 0.0 | 0.00 | 0.00 | 0.00 | 80 | 1010.0 |
| 20260506212245 | 72 | 210 | 7.0 | 0.0 | 0.00 | 0.00 | 0.00 | 80 | 1010.0 |
| 20260506211244 | 73 | 210 | 7.0 | 0.0 | 0.00 | 0.00 | 0.00 | 80 | 1010.0 |
| 20260506210243 | 73 | 210 | 7.0 | 0.0 | 0.00 | 0.00 | 0.00 | 80 | 1010.0 |
| 20260506205242 | 73 | 210 | 7.0 | 0.0 | 0.00 | 0.00 | 0.00 | 80 | 1010.0 |
| 20260506204241 | 73 | 210 | 7.0 | 0.0 | 0.00 | 0.00 | 0.00 | 80 | 1010.0 |
| 20260506203240 | 73 | 210 | 7.0 | 0.0 | 0.00 | 0.00 | 0.00 | 80 | 1010.0 |
| 20260506202239 | 73 | 210 | 7.0 | 0.0 | 0.00 | 0.00 | 0.00 | 80 | 1010.0 |
| 20260506201238 | 73 | 210 | 7.0 | 0.0 | 0.00 | 0.00 | 0.00 | 80 | 1010.0 |
| 20260506200237 | 73 | 210 | 7.0 | 0.0 | 0.00 | 0.00 | 0.00 | 81 | 1010.0 |
| 20260506195236 | 73 | 210 | 7.0 | 0.0 | 0.00 | 0.00 | 0.00 | 81 | 1010.0 |
| 20260506194235 | 73 | 210 | 7.0 | 0.0 | 0.00 | 0.00 | 0.00 | 82 | 1010.0 |
| 20260506193234 | 73 | 210 | 7.0 | 0.0 | 0.00 | 0.00 | 0.00 | 83 | 1010.0 |
| 20260506192233 | 73 | 210 | 7.0 | 0.0 | 0.00 | 0.00 | 0.00 | 83 | 1011.0 |
| 20260506191232 | 73 | 210 | 7.0 | 0.0 | 0.00 | 0.00 | 0.00 | 83 | 1011.0 |
| 20260506190231 | 73 | 210 | 7.0 | 0.0 | 0.00 | 0.00 | 0.00 | 83 | 1011.0 |
| 20260506185231 | 73 | 210 | 7.0 | 0.0 | 0.00 | 0.00 | 0.00 | 83 | 1011.0 |
| 20260506184229 | 73 | 210 | 7.0 | 0.0 | 0.00 | 0.00 | 0.00 | 83 | 1011.0 |
| 20260506183228 | 73 | 210 | 7.0 | 0.0 | 0.00 | 0.00 | 0.00 | 83 | 1011.0 |
| 20260506182227 | 73 | 210 | 7.0 | 0.0 | 0.00 | 0.00 | 0.00 | 83 | 1012.0 |
| 20260506181226 | 73 | 210 | 7.0 | 0.0 | 0.00 | 0.00 | 0.00 | 83 | 1012.0 |
| 20260506180225 | 73 | 210 | 7.0 | 0.0 | 0.00 | 0.00 | 0.00 | 83 | 1012.0 |
| 20260506175224 | 73 | 210 | 7.0 | 0.0 | 0.00 | 0.00 | 0.00 | 83 | 1012.0 |
| 20260506174223 | 73 | 210 | 7.0 | 0.0 | 0.00 | 0.00 | 0.00 | 83 | 1012.0 |
| 20260506173222 | 73 | 210 | 7.0 | 0.0 | 0.00 | 0.00 | 0.00 | 83 | 1012.0 |
| 20260506172221 | 73 | 210 | 7.0 | 0.0 | 0.00 | 0.00 | 0.00 | 83 | 1013.0 |
| 20260506171220 | 73 | 210 | 7.0 | 0.0 | 0.00 | 0.00 | 0.00 | 83 | 1013.0 |